Tracking 25963 objects as of 12-Aug-2022
HD Live streaming from Space Station
objects crossing your sky now

SAKURA 2B (CS-2B)

Track SAKURA 2B (CS-2B) now!
SAKURA 2B (CS-2B) is classified as:


NORAD ID: 14248
Int'l Code: 1983-081A
Perigee: 36,186.9 km
Apogee: 36,229.8 km
Inclination: 13.2 °
Period: 1,457.3 minutes
Semi major axis: 42579 km
RCS: 8.9693 m2 (large)
Launch date: August 5, 1983
Source: Japan (JPN)
Launch site: TANEGASHIMA SPACE CENTER (TNSTA)
aabbcc
Your satellite tracking list
Your tracking list is empty




NASA's NSSDC Master Catalog

Two Line Element Set (TLE):
1 14248U 83081A   22224.34108455 -.00000048  00000-0  00000-0 0  9994
2 14248  13.1895 334.5512 0005038  97.2951 282.5674  0.98810667109807
Source of the keplerian elements: AFSPC